Regional Weather Roundup
Issued by NWS

Home | Current Version | Previous Version | Text Only | Print | Product List | Glossary Off
Versions: 1 2 3 4 5 6 7 8 9 10 11 12 13 14 15 16 17 18 19 20 21 22 23 24 25 26 27

000
ASUS45 KCYS 220410
RWRWY

WYOMING REGIONAL WEATHER ROUNDUP
NATIONAL WEATHER SERVICE CHEYENNE WY
1000 PM MDT FRI JUL 21 2017

NOTE:  "FAIR" INDICATES FEW OR NO CLOUDS BELOW 12,000 FEET
WITH NO SIGNIFICANT WEATHER AND/OR OBSTRUCTIONS TO VISIBILITY.

WYZ001-220500-
YELLOWSTONE NATIONAL PARK

CITY           SKY/WX    TMP DP  RH WIND       PRES   REMARKS
LK YELLOWSTONE   N/A     51  40  65 CALM      30.36R
W YELLOWSTONE  NOT AVBL

$$
WYZ002>013-054>058-071-098>099-220500-
NORTHERN WYOMING

CITY           SKY/WX    TMP DP  RH WIND       PRES   REMARKS
JACKSON        FAIR      57  37  47 N8        30.25R
CODY           FAIR      74  38  27 NW3       30.14R
GREYBULL       FAIR      84  34  16 N13       29.99R
WORLAND        FAIR      70  44  39 NE6       29.99R
SHERIDAN       FAIR      63  48  58 SW6       30.04R
BUFFALO        FAIR      68  39  34 W8        30.12R
GILLETTE       FAIR      64  37  36 SW5       30.05R
HULETT         FAIR      68  43  40 S8        30.06S
NEWCASTLE      FAIR      72  37  28 N8        30.04S

$$
WYZ014>020-022>026-101>103-220500-
CENTRAL WYOMING

CITY           SKY/WX    TMP DP  RH WIND       PRES   REMARKS
BIG PINEY      FAIR      62  32  32 N12       30.29R
PINEDALE       FAIR      55  39  54 NW9       30.30R
DUBOIS         FAIR      61  27  27 NW8       30.29R
LANDER         FAIR      73  32  22 SW15      30.10R
RIVERTON       FAIR      75  27  17 W14       30.10R
CASPER         FAIR      76  46  34 S15G25    30.09R
DOUGLAS        FAIR      75  50  41 SE9       30.10R

$$
WYZ021-027>030-104>119-220500-
SOUTHERN WYOMING

CITY           SKY/WX    TMP DP  RH WIND       PRES   REMARKS
EVANSTON       FAIR      71  40  32 N8        30.27R
KEMMERER         N/A    N/A N/A N/A N8        30.30R
FORT BRIDGER   FAIR      73  33  23 N5        30.29R
ROCK SPRINGS   MOCLDY    72  53  51 S8        30.24R
RAWLINS        FAIR      65  47  52 S5        30.26R
SARATOGA       FAIR      59  52  77 SE14G20   30.30S
LARAMIE        FAIR      56  52  86 S14       30.31R
CHEYENNE       FAIR      60  55  83 SW7       30.27F
TORRINGTON     FAIR      74  51  44 W9        30.03R
PINE BLUFFS    FAIR      68  50  52 W17       30.20R

$$




USA.gov is the U.S. government's official web portal to all federal, state and local government web resources and services.